Regional Weather Roundup
Issued by NWS

Home | Current Version | Previous Version | Graphics & Text | Print | Product List | Glossary On
Versions: 1 2 3 4 5 6 7 8 9 10 11 12 13 14 15 16 17 18 19 20 21 22 23 24 25 26 27 28 29 30 31 32 33 34 35 36 37 38 39 40 41 42 43 44 45 46 47 48 49 50
000
ASUS45 KABQ 232101
RWRNM
NEW MEXICO REGIONAL WEATHER ROUNDUP
NATIONAL WEATHER SERVICE ALBUQUERQUE NM
200 PM MST THU NOV 23 2017

NOTE: "FAIR" MEANS FEW OR NO CLOUDS BELOW 12,000 FEET AGL WITH NO
       SIGNIFICANT WEATHER OR OBSTRUCTIONS TO VISION.

      THIS PRODUCT IS RELEASED AS TWO VERSIONS.  ONE VERSION NEAR
      THE TOP OF THE HOUR CONTAINING PRELIMINARY DATA FROM ALBUQUERQUE
      AND OTHER STATIONS.  A FINAL VERSION WITH ADDITIONAL DATA IS
      ISSUED ABOUT 10 MINUTES AFTER THE HOUR.

NMZ501-503-504-510>518-232200-
NORTHWEST PLATEAU/NORTHCENTRAL MOUNTAINS

CITY           SKY/WX    TMP DP  RH WIND       PRES   REMARKS
FARMINGTON     FAIR      59  31  34 W6        30.24F
LOS ALAMOS     FAIR      60  29  31 CALM      30.29F
SANTA FE       FAIR      63  31  30 SW14      30.24F
TAOS           FAIR      64  29  26 W8        30.28F
ANGEL FIRE     FAIR      58  27  30 W13       30.30F

$$
NMZ402-403-502-505>509-232200-
WESTCENTRAL MOUNTAINS/SOUTHWEST MOUNTAINS

CITY           SKY/WX    TMP DP  RH WIND       PRES   REMARKS
GALLUP         FAIR      65  28  24 SW3       30.29F
GRANTS         FAIR      64  29  26 N3        30.29F
SILVER CITY    FAIR      71  28  19 SE5       30.23F

$$
NMZ407-409-411-412-232200-
SOUTHERN DESERTS

CITY           SKY/WX    TMP DP  RH WIND       PRES   REMARKS
DEMING         FAIR      71  29  21 SW5       30.18F
LAS CRUCES     FAIR      70  26  19 CALM      30.20F
ALAMOGORDO     FAIR      68  27  21 CALM      30.18F
T OR C         FAIR      70  30  22 SE6       30.19F

$$
NMZ519>523-232200-
CENTRAL VALLEYS/CENTRAL HIGHLANDS

CITY           SKY/WX    TMP DP  RH WIND       PRES   REMARKS
ALBUQUERQUE    PTSUNNY   65  31  28 CALM      30.23F
DOUBLE EAGLE   MOSUNNY   64  32  29 W7        30.25F
MORIARTY ARPT  FAIR      71  30  21 NW13G18   30.23F
CLINES CORNERS FAIR      65  28  24 W12G23    30.26F
BELEN          FAIR      66  30  26 CALM      30.23F
SOCORRO        FAIR      68  30  23 N10       30.20F

$$
NMZ524>526-539-540-232200-
SOUTHCENTRAL MOUNTAINS

CITY           SKY/WX    TMP DP  RH WIND       PRES   REMARKS
RUIDOSO        FAIR      66  27  22 NW7       30.27F

$$
NMZ527>531-232200-
NORTHEAST HIGHLANDS/NORTHEAST PLAINS

CITY           SKY/WX    TMP DP  RH WIND       PRES   REMARKS
LAS VEGAS      FAIR      65  30  27 S13       30.22F
RATON          FAIR      64  30  27 VRB6      30.16F
CLAYTON        FAIR      69  34  27 SW10      30.11F

$$
NMZ532>537-232200-
EASTCENTRAL PLAINS

CITY           SKY/WX    TMP DP  RH WIND       PRES   REMARKS
SANTA ROSA     FAIR      70  31  23 SW5       30.14F
TUCUMCARI      FAIR      73  28  18 SW5       30.09F
CANNON AFB     FAIR      74  29  19 SW10      30.13F
CLOVIS AIRPORT FAIR      73  30  20 SW9       30.13F

$$
NMZ028-029-538-232200-
SOUTHEAST PLAINS

CITY           SKY/WX    TMP DP  RH WIND       PRES   REMARKS
ROSWELL        FAIR      74  31  20 S7        30.13F
ARTESIA        FAIR      72  32  23 SE6       30.13F
CARLSBAD       FAIR      73  34  23 E6        30.12F
HOBBS          SUNNY     73  32  21 VRB6      30.13F


$$



USA.gov is the U.S. government's official web portal to all federal, state and local government web resources and services.